STARLINK-32379, 61851

Orbit data source: Space-Track

STARLINK-32379, 61851 is a payload satellite owned by SpaceX/Seattle (US) in LEO that was launched on Thu, 07 Nov 2024 UTC via an FALCON 9 launch vehicle from the Air Force Eastern Test Range (AFETR). Payload-class satellites include a variety of spacecraft equipped with specific instruments for various scientific and technological missions. These include communications satellites like Starlink; space stations such as the ISS; scientific satellites like the Hubble; Earth observation satellites from companies like Planet Labs, Umbra, and HawkEye 360; GPS; miniature CubeSats for education and research; and military/defense satellites.

Loading next visibility...
Identifier
61851, 2024-202G
Orbit
LEO
Country
Flag of USUS
Related business
Manufacturer
SpaceX/Seattle
Mission
Operational Commercial Communications
Bus & Motor
STARLINK V2M, Unknown motor
Mass
730 kg wet, ~700 kg dry
Launch date (UTC)
2024-11-07 (1 year ago)
Launch vehicle
FALCON 9
Launch site
Air Force Eastern Test Range (AFETR)
Object type
Payload
Rocket body
Debris
Shape & HBR
Box + 2 Pan, 17.7 m
Radar Cross Section
33.884 m², Large (>1 m²)

Expand to show TLE details & history
Last TLE update: 13 hours ago

TLE from 13 hours ago
0 STARLINK-32379
1 61851U 24202G   26035.11233129  .00001880  00000-0  77848-4 0  9994
2 61851  43.0026  56.2619 0000766 252.9274 107.1494 15.27571067 70326
Epoch: 2026-02-04T02:41Z
TLE epoch observation values (Epoch: 2026-02-04T02:41:45.423Z)
Latitude
-0°
Longitude
-118.46095°
Altitude
483.007 km
Speed
7.626 km/s
True Right ascension
03h 45m 02s
True Declination
0° 00' 00"
Sunlit
Object was in daylight at epoch
Visualization orbit readout
Latitude
Unknown
Longitude
Unknown
Altitude
Unknown
Speed
Unknown
Apparent Right ascension
Unknown
Apparent Declination
Unknown
Sunlit
N/A
Visualization observer readout
Local Sidereal Time
17:20:00
Azimuth
Unknown
Elevation
Unknown
Doppler factor
Unknown
Orbital elements
Apogee altitude
485.546 km
Perigee altitude
484.495 km
Semi-major axis
6,863.158 km
Eccentricity
0.00008
Inclination
43.0026°
RAAN
56.2619°
Arg. of periapsis
252.9274°
True anomaly
107.15779°
Mean anomaly
107.1494°
Eccentric anomaly
107.15359°
Mean motion
3.81731 °/min
Orbital period
94.31 mins
BSTAR
0.000077848
Loading maneuver chart data...
Computing Atmospheric mass density...
Loading historical data...
Loading historical data...
Loading historical data...
Loading historical data...
Loading historical data...
Loading historical data...
Loading historical data...

Documentation

Showing up to 5 results
|